This is the latest recevied weather packets stored in our database for station/object KB2KMM. If no packets are shown the sender has not sent any weather packets the latest 10 day(s).
| Time | Temp. | Humidity | Pressure | Rain* | Wind** | Luminosity | Snow |
|---|---|---|---|---|---|---|---|
| 1778016008 | 18.89° C | 60% | 1009.1 hPa | 0 mm | - | - | - |
| 1778015707 | 18.89° C | 60% | 1009.2 hPa | 0 mm | - | - | - |
| 1778015408 | 18.89° C | 59% | 1009.1 hPa | 0 mm | - | - | - |
| 1778015105 | 18.89° C | 59% | 1009 hPa | 0 mm | - | - | - |
| 1778014805 | 18.89° C | 58% | 1009.2 hPa | 0 mm | - | - | - |
| 1778014506 | 19.44° C | 57% | 1009.1 hPa | 0 mm | - | - | - |
| 1778014210 | 19.44° C | 57% | 1009.2 hPa | 0 mm | - | - | - |
| 1778013906 | 19.44° C | 59% | 1009.2 hPa | 0 mm | - | - | - |
| 1778013612 | 18.89° C | 60% | 1009.2 hPa | 0 mm | - | - | - |
| 1778013305 | 18.89° C | 59% | 1009.2 hPa | 0 mm | - | - | - |
| 1778013009 | 18.89° C | 60% | 1009.3 hPa | 0 mm | - | - | - |
| 1778012705 | 18.89° C | 59% | 1009.3 hPa | 0 mm | - | - | - |
| 1778012410 | 19.44° C | 58% | 1009.3 hPa | 0 mm | - | - | - |
| 1778012105 | 19.44° C | 59% | 1009.5 hPa | 0 mm | - | - | - |
| 1778011808 | 19.44° C | 56% | 1009.6 hPa | 0 mm | - | - | - |
| 1778011505 | 20° C | 55% | 1009.6 hPa | 0 mm | - | - | - |
| 1778011205 | 20.56° C | 55% | 1009.6 hPa | 0 mm | - | - | - |
| 1778010905 | 20° C | 56% | 1009.8 hPa | 0 mm | - | - | - |
| 1778010609 | 20° C | 56% | 1009.8 hPa | 0 mm | - | - | - |
| 1778010305 | 20° C | 56% | 1009.8 hPa | 0 mm | - | - | - |
| 1778010009 | 20° C | 55% | 1009.8 hPa | 0 mm | - | - | - |
| 1778009705 | 20.56° C | 56% | 1010 hPa | 0 mm | - | - | - |
| 1778009410 | 20.56° C | 54% | 1009.9 hPa | 0 mm | - | - | - |
| 1778009105 | 20.56° C | 59% | 1010.1 hPa | 0 mm | - | - | - |
| 1778008809 | 20° C | 60% | 1010.3 hPa | 0 mm | - | - | - |
* Rain latest hour (hover to see other rain measurements)
** Current wind speed in m/s (hover to see current wind gust speed)